Location: ???????
(52.9498°N, 53.8930°E)
Time: 19:19:34
(UTC+00:00)

Daily predictions for brighter satellites

Satellite Brightness Start Highest point End
(mag) Time Altitude Azimuth Time Altitude Azimuth Time Altitude Azimuth
Cosmos 2184 Rocket 4.0 15:02:29 10° N 15:08:44 76° ENE 15:15:01 10° SSE
Aureole 1 Rocket 3.5 15:08:11 10° NNW 15:14:10 87° ENE 15:18:35 10° SSE
DMSP B5D1-3 4.5 15:09:20 10° NNE 15:14:26 67° ESE 15:19:30 10° S
Cosmos 1441 Rocket 4.0 15:11:53 10° SSE 15:15:12 28° E 15:18:29 10° NNE
NOSS 3-4 (A) 3.9 15:08:48 10° NW 15:15:38 76° NE 15:23:08 10° SE
NOSS 3-4 (C) 3.9 15:08:55 10° NW 15:15:43 76° NE 15:23:14 10° SE
MOS 1 4.3 15:13:54 10° SSE 15:19:35 72° ENE 15:25:16 10° NNW
FREGAT/IRIS 2.5 15:18:19 10° SSE 15:21:03 54° ENE 15:23:50 10° N
CZ-2C R/B 4.2 15:17:29 10° ESE 15:21:51 27° ENE 15:26:24 10° N
ERBS 3.2 15:18:49 10° WNW 15:22:05 41° N 15:25:19 10° ENE
Cosmos 389 Rocket 3.6 15:19:19 10° N 15:22:14 25° ENE 15:25:08 10° SE
SL-16 R/B 3.4 15:18:32 10° NNW 15:23:21 27° NE 15:28:07 10° E
Ariane Rocket 3.3 15:20:03 10° S 15:25:06 74° WSW 15:30:13 10° NNW
NOSS 3-3 (A) 4.1 15:21:56 10° SSW 15:27:50 60° SE 15:34:29 10° NE
NOSS 3-3 (C) 4.1 15:22:02 10° SSW 15:27:56 59° SE 15:34:35 10° NE
COSMOS 2487 4.3 15:26:20 10° SW 15:29:34 34° WNW 15:32:49 10° N
Resurs 01 Rocket 2.8 15:26:53 10° ESE 15:30:29 25° ENE 15:34:08 10° N
Okean 1 Rocket 3.3 15:27:20 10° SSE 15:31:27 44° E 15:35:37 10° NNE
SJ-6B 3.1 15:28:04 10° SE 15:32:05 52° ENE 15:36:05 10° N
COSMOS 2428 2.9 15:27:00 10° NNW 15:32:42 78° WSW 15:38:23 10° SSE
Cosmos 1707 3.0 15:28:59 10° N 15:32:49 49° ENE 15:36:37 10° SSE
Cosmos 407 Rocket 3.8 15:27:59 10° NNW 15:33:00 48° ENE 15:37:54 10° SE
Cosmos 2219 Rocket 2.3 15:28:02 10° NNW 15:33:39 79° WSW 15:39:15 10° SSE
Okean 2 Rocket 3.9 15:29:27 10° SSW 15:33:51 58° WNW 15:38:20 10° N
GP-B 3.1 15:30:00 10° N 15:34:28 84° E 15:38:55 10° S
Cosmos 1378 4.3 15:31:02 10° NNW 15:34:40 47° W 15:38:17 10° SSW
Meteor 1-4 Rocket 3.5 15:33:50 10° N 15:37:00 28° ENE 15:39:25 14° ESE
Cosmos 614 Rocket 4.3 15:32:21 10° NNW 15:37:28 50° ENE 15:42:17 11° SE
Cosmos 1939 Rocket 3.7 15:34:11 10° S 15:37:57 50° W 15:41:44 10° NNW
Meteor 1-12 Rocket 4.2 15:37:35 10° S 15:43:18 74° E 15:48:58 10° NNE
USA 234 3.6 15:36:52 10° ENE 15:43:22 67° N 15:49:52 10° W
Cosmos 2360 Rocket 4.3 15:39:44 10° NW 15:44:24 27° WSW 15:49:05 10° SSW
SJ-11-01 4.3 15:40:04 10° SSE 15:44:50 86° ENE 15:49:38 10° NNW
Nadezhda 1 Rocket 3.9 15:39:04 10° S 15:45:05 71° E 15:51:10 10° NNE
EO 1 Delta rocket 4.4 15:40:10 10° SSE 15:46:58 80° ENE 15:52:20 10° N
Timation 2 Rocket 4.0 15:40:47 10° SSW 15:47:19 72° ESE 15:53:36 10° NE
SPOT 3 Rocket 3.5 15:42:42 10° SSE 15:47:50 76° ENE 15:53:00 10° NNW
USA 186 1.9 15:46:07 10° SSE 15:49:30 87° ENE 15:52:57 10° NNW
Meteor 2-15 Rocket 4.4 15:44:31 10° S 15:50:39 78° E 15:56:50 10° NNE
CZ-2C R/B 4.4 15:48:17 10° NE 15:50:56 13° E 15:51:19 13° E
ADEOS Rocket 3.8 15:44:46 10° NNE 15:51:31 42° E 15:58:40 10° SSE
NOSS 0 Rocket 4.0 15:45:43 10° NW 15:51:57 88° WSW 15:58:11 10° SSE
Cosmos 1295 Rocket 4.4 15:46:59 10° N 15:53:15 77° E 15:59:23 10° SSE
Cosmos 1025 Rocket 4.3 15:50:33 10° NNW 15:54:37 42° W 15:58:39 10° SSW
ATLAS 2AS CENTAUR R/B 3.4 15:51:39 10° NW 15:59:15 59° SW 16:06:15 10° SSE
Cosmos 2219 3.8 15:54:57 10° S 16:00:06 35° ESE 16:05:16 10° NE
Cosmos 2227 Rocket 3.2 15:57:37 10° SSE 16:01:54 23° ESE 16:06:14 10° NE
Spot 2 Rocket 4.3 15:59:43 19° ESE 16:02:35 33° ENE 16:07:04 10° N
Cosmos 1892 Rocket 3.6 15:58:15 10° N 16:02:41 59° ENE 16:06:21 14° SSE
Cosmos 1140 Rocket 3.6 15:58:23 10° NNW 16:03:32 56° ENE 16:07:04 20° SE
Okean 1-7 Rocket 3.6 15:59:31 10° N 16:03:56 62° ENE 16:07:42 14° SSE
Terra 3.9 16:05:25 10° ENE 16:06:56 12° NE 16:08:33 10° NNE
Cosmos 2297 Rocket 3.0 16:08:10 10° SSE 16:12:54 28° ESE 16:17:39 10° NE
Cosmos 1371 Rocket 4.4 16:08:26 10° S 16:13:22 40° ESE 16:18:21 10° NE
ARGOS 3.1 16:08:25 10° SSE 16:13:48 85° ENE 16:19:13 10° NNW
CZ-2C R/B 3.6 16:09:29 10° NNE 16:14:00 89° E 16:18:27 10° SSW
Cosmos 2341 Rocket 4.0 16:09:19 10° N 16:15:38 88° E 16:21:52 10° S
H-2A R/B 2.0 16:14:26 10° SSE 16:19:22 84° WSW 16:24:26 10° NNW
Cosmos 1437 Rocket 3.1 16:16:32 10° N 16:20:13 42° ENE 16:21:16 34° ESE
Meteor 1-24 Rocket 4.0 16:15:23 10° N 16:20:56 50° ENE 16:24:13 24° SE
RESURS DK-1 3.8 16:19:06 10° NNW 16:22:33 24° NE 16:23:53 21° ENE
Cosmos 2181 Rocket 4.0 16:17:02 10° S 16:23:07 58° E 16:29:20 10° NNE
BREEZE M DEB (TANK) 2.3 16:22:03 10° WSW 16:24:23 50° S 16:25:42 33° ESE
Cosmos 676 Rocket 4.0 16:19:18 10° NNW 16:24:35 67° ENE 16:27:28 27° SE
Cosmos 2333 Rocket 3.7 16:20:42 10° NW 16:25:49 35° WSW 16:30:56 10° S
ASTEX 1 3.9 16:25:25 10° N 16:30:15 61° W 16:35:03 10° SSW
Cosmos 405 Rocket 2.5 16:30:12 28° SSE 16:31:55 59° E 16:35:35 10° NNE
Cosmos 1626 3.9 16:30:07 10° NNE 16:32:20 18° NE 16:32:20 18° NE
Meteor 2-5 Rocket 3.7 16:28:45 10° NNW 16:34:34 80° ENE 16:38:38 21° SSE
Cosmos 1461 2.9 16:30:41 10° SW 16:34:41 74° NW 16:38:39 10° NE
CZ-4C R/B 3.9 16:30:54 10° WNW 16:36:18 34° N 16:42:37 10° ENE
SL-24 R/B 4.2 16:34:06 25° SSE 16:36:46 86° ENE 16:41:45 10° NNW
Cosmos 2218 Rocket 4.0 16:30:58 10° N 16:37:24 80° ENE 16:42:11 19° SSE
Cosmos 2237 Rocket 2.6 16:33:20 10° NW 16:38:59 63° WSW 16:42:58 20° S
MetOp-A 4.1 16:35:13 20° SSE 16:39:02 89° WSW 16:44:27 10° NNW
In-Cosmos 22 4.4 16:36:17 10° NNW 16:41:34 65° W 16:46:30 12° S
Cosmos 1190 Rocket 4.4 16:36:27 10° NNW 16:41:43 63° WSW 16:45:17 20° S
Cosmos 2366 rocket 4.0 16:37:31 10° N 16:43:56 83° E 16:48:24 21° SSE
GENESIS II 4.3 16:42:34 10° NW 16:46:42 74° SW 16:47:44 48° SSE
Cosmos 1980 4.3 16:42:18 10° NW 16:47:46 52° WSW 16:51:41 19° S
Cosmos 1544 Rocket 3.5 16:46:38 37° SSE 16:48:13 62° E 16:52:39 10° NNE
Cosmos 1455 Rocket 2.9 16:46:32 25° S 16:49:06 75° E 16:53:34 10° NNE
Cosmos 864 Rocket 4.4 16:43:21 10° N 16:49:36 86° E 16:53:42 23° S
SL-08 RB Rocket 4.1 16:47:16 20° S 16:50:27 63° WSW 16:55:07 10° NNW
Cosmos 1821 Rocket 4.4 16:47:18 10° N 16:53:13 44° ENE 16:54:57 36° ESE
Cosmos 1805 3.4 16:54:21 52° ENE 16:54:21 52° ENE 16:57:47 10° NNE
SL-8 Rocket 4.2 16:49:14 10° NNW 16:55:25 70° W 17:00:37 15° S
Cosmos 1850 Rocket 4.2 16:51:23 10° NNW 16:56:29 53° ENE 16:57:42 43° ESE
Cosmos 389 Rocket 4.4 16:54:00 10° NW 16:56:57 27° W 16:59:11 15° SW
Meteor 1-22 Rocket 4.5 16:54:33 30° SSE 16:57:30 57° E 17:03:28 10° NNE
ERBS 2.3 16:55:19 10° WNW 16:58:31 78° WNW 16:58:31 78° WNW
CZ-2C R/B 3.4 16:57:57 22° S 17:01:18 65° WSW 17:06:48 10° NNW
SL-8 R/B 3.9 16:58:08 10° WSW 17:02:46 49° S 17:02:57 49° SSE
Cosmos 1603 4.5 16:57:31 10° NNW 17:02:48 38° NE 17:04:20 32° E
SPOT 5 3.6 17:02:35 36° ENE 17:02:57 36° ENE 17:07:30 10° N
Cosmos 1674 2.7 17:00:40 10° NNW 17:04:24 70° W 17:04:51 62° SW
Cosmos 1626 Rocket 3.4 17:00:39 10° N 17:05:01 87° E 17:05:42 63° SSE
BREEZE-M DEB (TANK) 3.9 17:01:10 10° W 17:05:43 70° SSW 17:10:32 31° ESE
Resurs 01 Rocket 2.4 17:04:28 26° SSW 17:06:44 50° W 17:11:05 10° NNW
SL-16 R/B 2.1 17:02:28 10° NNW 17:08:11 86° WSW 17:10:00 46° SSE
DMSP B5D2-2 4.0 17:04:37 10° NNE 17:09:56 73° ESE 17:12:00 38° S
Cosmos 1825 Rocket 4.4 17:07:34 10° N 17:11:02 35° NE 17:11:02 35° NE
Meteor 1-4 Rocket 4.5 17:08:58 10° NW 17:12:00 26° W 17:13:38 18° SW
Landsat 7 3.9 17:11:54 54° E 17:12:15 55° ENE 17:16:55 10° N
Cosmos 2056 Rocket 3.5 17:06:59 10° SSW 17:12:26 89° NW 17:17:53 10° NNE
SPOT 1/Viking Rocket 3.5 17:17:33 56° ESE 17:18:14 62° ENE 17:23:22 10° N
KORONAS-FOTON 4.2 17:15:47 10° NNW 17:19:30 55° W 17:19:44 54° WSW
SL-14 R/B 3.6 17:16:05 10° N 17:19:29 56° NNE 17:19:29 56° NNE
Cosmos 1758 Rocket 4.2 17:16:03 10° N 17:19:34 42° NE 17:19:34 42° NE
Cosmos 1420 Rocket 4.2 17:21:31 52° E 17:21:31 52° E 17:26:11 10° NNE
Cosmos 1741 Rocket 3.9 17:19:22 10° NNW 17:24:46 80° ENE 17:25:30 66° SE
Cosmos 1602 Rocket 3.5 17:20:24 10° NNW 17:24:47 75° W 17:25:03 72° SW
Cosmos 1624 Rocket 4.1 17:19:38 10° SSW 17:24:49 72° WNW 17:30:03 10° NNE
USA 234 3.4 17:22:59 33° E 17:26:07 68° N 17:32:38 10° WNW
Cosmos 2082 3.7 17:26:47 58° ESE 17:26:47 58° ESE 17:32:14 10° NE
CZ-2C R/B 2.6 17:26:40 10° NNE 17:32:13 70° ESE 17:32:49 64° SE
Cosmos 1766 3.8 17:34:15 55° W 17:34:21 55° WNW 17:38:13 10° N
ADEOS Rocket 4.0 17:30:17 10° N 17:37:11 57° WNW 17:44:36 10° SW
IGS 5A 3.8 17:38:37 59° N 17:38:37 59° N 17:42:05 10° NNW
ERS-1 Rocket 2.8 17:40:29 84° SE 17:40:39 88° ENE 17:45:44 10° NNW
Spot 2 Rocket 4.3 17:39:55 35° SW 17:41:27 45° W 17:46:18 10° NNW
Terra 2.3 17:44:18 51° NE 17:44:18 51° NE 17:48:22 10° N
Cosmos 2219 3.9 17:38:27 10° SW 17:44:05 54° NW 17:49:45 10° NNE
Cosmos 2227 Rocket 2.2 17:39:43 10° SW 17:45:23 78° WNW 17:51:06 10° NNE
Meteor 1-21 Rocket 4.2 17:40:03 10° N 17:45:56 75° ENE 17:46:23 71° ESE
Cosmos 2297 Rocket 2.5 17:50:57 10° SW 17:56:34 64° NW 18:02:14 10° NNE
Cosmos 1934 Rocket 3.8 17:54:04 10° N 18:00:12 81° E 18:00:32 77° ESE
RESURS DK-1 3.5 17:56:50 10° NW 17:59:46 42° WNW 17:59:46 42° WNW
Cosmos 1452 Rocket 3.7 18:07:47 67° N 18:07:47 67° N 18:12:23 10° NNE
Cosmos 1626 4.0 18:04:46 10° NNW 18:06:55 29° NW 18:06:55 29° NW
Cosmos 1943 3.2 18:07:12 10° NNW 18:12:36 72° NNE 18:12:36 72° NNE
Cosmos 2263 Rocket 4.3 18:18:12 15° NE 18:18:12 15° NE 18:19:18 10° NE
Cosmos 2285 Rocket 4.5 18:09:40 10° NNW 18:15:54 48° NE 18:16:12 48° ENE
Nadezhda 3 Rocket 4.2 18:21:39 54° WSW 18:22:47 65° WNW 18:28:59 10° N
CZ-4C R/B 3.6 18:20:17 10° NW 18:26:25 42° NNE 18:29:21 30° ENE
Mayak 1.5 18:23:49 10° NE 18:23:57 11° NE 18:23:57 11° NE
Cosmos 1605 Rocket 4.0 18:29:14 10° NNW 18:35:30 84° NW 18:35:30 84° NW
SPOT 5 4.1 18:41:49 35° WNW 18:41:49 35° WNW 18:45:38 10° NNW
Cosmos 1603 4.4 18:41:39 10° NW 18:46:12 48° W 18:46:12 48° W
MOS 1 Rocket 4.3 18:43:02 10° N 18:47:15 51° NNW 18:47:15 51° NNW
Cosmos 2100 Rocket 4.4 18:43:01 10° N 18:48:32 54° NE 18:48:32 54° NE
SL-16 R/B 4.2 18:47:48 10° WNW 18:51:30 18° W 18:51:53 18° WSW
USA 234 3.5 19:10:20 60° W 19:10:20 60° W 19:15:45 10° WNW
Cosmos 2173 Rocket 4.3 19:11:52 10° N 19:17:14 64° N 19:17:14 64° N
Terra 3.9 19:23:12 21° WNW 19:23:12 21° WNW 19:25:40 10° NW
Cosmos 2082 Rocket 4.3 19:19:51 10° NNW 19:24:04 20° NNE 19:26:06 17° ENE
Cosmos 2227 Rocket 4.3 19:25:52 10° W 19:30:22 24° NW 19:34:55 10° NNE
Cosmos 1802 Rocket 4.4 19:24:34 10° N 19:29:40 61° N 19:29:40 61° N
Cosmos 1459 Rocket 4.4 19:27:02 10° NNW 19:31:43 55° NNW 19:31:43 55° NNW
Cosmos 2061 Rocket 4.4 19:31:43 10° N 19:36:58 61° N 19:36:58 61° N
COSMOS 2406 4.3 19:34:55 10° NNW 19:39:33 41° NNE 19:39:33 41° NNE
Cosmos 2297 Rocket 4.5 19:37:31 10° W 19:41:45 21° NNW 19:46:00 10° NNE
Cosmos 2263 Rocket 3.3 19:59:53 42° N 19:59:53 42° N 20:03:44 10° NNE
Mayak 1.4 19:59:16 10° N 20:00:31 18° N 20:00:31 18° N
ATLAS CENTAUR R/B 4.0 20:10:33 20° NE 20:10:33 20° NE 20:12:03 10° NE
Cosmos 1833 Rocket 4.0 20:03:57 10° NNW 20:08:33 35° NNE 20:08:33 35° NNE
CZ-4C R/B 3.0 20:08:51 10° NW 20:14:29 65° NW 20:14:29 65° NW
USA 267 4.1 20:09:21 10° ENE 20:13:19 40° ENE 20:13:19 40° ENE
SL-16 R/B 4.1 20:20:20 25° ENE 20:21:39 27° NE 20:26:44 10° N
ATLAS 5 CENTAUR R/B 4.5 20:51:30 11° ENE 20:51:30 11° ENE 20:51:49 10° ENE
CZ-2D R/B 4.4 20:45:32 10° NE 20:47:49 15° ENE 20:47:49 15° ENE
Cosmos 1844 Rocket 3.6 21:10:56 47° NNE 21:10:56 47° NNE 21:14:59 10° NNE
Cosmos 2082 Rocket 3.1 21:03:40 10° NNW 21:07:54 46° N 21:07:54 46° N
Lacrosse 5 3.8 21:13:53 24° ENE 21:13:53 24° ENE 21:15:57 10° ENE
SJ 16-02 3.5 21:22:31 10° NNW 21:24:38 24° N 21:24:38 24° N
Cosmos 1844 4.4 21:42:31 50° NNW 21:42:31 50° NNW 21:47:10 10° NNE
Tsikada Rocket 4.4 21:42:49 54° E 21:42:49 54° E 21:48:35 10° NNE
Cosmos 2263 Rocket 4.2 21:41:34 19° NW 21:43:08 21° NNW 21:47:22 10° NNE
ADEOS II 4.3 21:42:59 10° NE 21:46:17 17° E 21:47:32 15° ESE
H-2A R/B 4.1 21:49:27 24° N 21:49:27 24° N 21:51:12 10° N
ATLAS CENTAUR R/B 3.7 21:46:45 24° NNW 21:47:09 24° NNW 21:51:01 10° NE
Cosmos 1833 Rocket 4.3 21:47:52 10° NW 21:50:12 25° NW 21:50:12 25° NW
Cosmos 2278 Rocket 2.6 21:55:39 60° NE 21:55:39 60° NE 22:00:20 10° NNE
Resurs 1-4 Rocket 2.9 21:52:29 10° NNE 21:56:58 47° ENE 21:56:58 47° ENE
USA 267 3.5 21:52:24 10° ENE 21:58:53 65° N 22:00:38 48° WNW
SL-16 R/B 2.6 22:05:26 70° NW 22:05:26 70° NW 22:11:00 10° NNW
Cosmos 1634 Rocket 4.1 21:58:41 10° N 22:05:01 71° ENE 22:05:29 68° ESE
IRS-1D 4.5 22:06:13 10° NNE 22:11:18 41° E 22:11:28 41° ESE
Cosmos 967 Rocket 4.4 22:08:04 10° NW 22:14:32 85° NE 22:15:29 67° SE
Cosmos 1943 Rocket 4.3 22:21:45 14° SE 22:23:45 17° E 22:27:14 10° ENE
Cosmos 1816 Rocket 4.3 22:25:46 77° WNW 22:25:46 77° WNW 22:31:52 10° N
NPP 3.7 22:21:38 10° NNE 22:26:50 76° ENE 22:26:50 76° ENE
Cosmos 1570 Rocket 4.4 22:27:57 58° E 22:27:57 58° E 22:32:57 10° NNE
Lacrosse 5 rocket 3.7 22:31:27 17° ESE 22:31:27 17° ESE 22:32:28 10° ESE
CZ-2D R/B 2.1 22:24:09 10° NNE 22:29:08 77° NE 22:29:08 77° NE
ATLAS 5 CENTAUR R/B 2.2 22:33:02 59° NNE 22:33:02 59° NNE 22:37:17 10° NE
Cosmos 1515 Rocket 4.4 22:35:08 47° ENE 22:35:08 47° ENE 22:38:55 10° NNE
CZ-4B R/B 4.4 22:38:57 10° N 22:42:52 37° NW 22:42:52 37° NW
Cosmos 540 Rocket 4.3 22:44:17 40° SE 22:44:59 42° ESE 22:49:50 10° NE
ARIANE 5 R/B 3.3 22:40:42 10° NNE 22:45:39 44° E 22:46:44 39° SE
Cosmos 1763 Rocket 3.4 22:46:16 81° ESE 22:46:18 82° ESE 22:51:40 10° NNE
Cosmos 468 Rocket 3.9 22:51:57 76° WNW 22:51:57 76° WNW 22:57:18 10° NNE
Cosmos 2082 Rocket 4.1 22:48:12 10° NW 22:49:42 17° NW 22:49:42 17° NW
Cosmos 1844 Rocket 4.4 22:52:35 20° NW 22:54:11 23° NNW 22:58:36 10° NNE
Lacrosse 5 2.4 22:53:06 43° NW 22:54:23 55° N 22:59:22 10° E
NOSS 3-3 (A) 4.3 22:48:05 10° NW 22:55:24 76° SW 23:03:31 10° SE
NOSS 3-3 (C) 4.3 22:48:11 10° NW 22:55:30 76° SW 23:03:38 10° SE
Cosmos 2344 4.3 22:53:51 30° SSE 22:57:01 44° ESE 23:04:45 10° NE
Cosmos 2084 4.1 22:57:47 50° ESE 22:57:47 50° ESE 23:01:43 10° NE
Cosmos 2297 3.6 23:00:47 66° SSW 23:01:35 83° ESE 23:07:20 10° NNE
Cosmos 1869 Rocket 4.3 22:57:25 10° N 23:01:51 53° ENE 23:03:25 35° SE
SJ 16-02 3.8 23:01:19 10° NW 23:01:36 11° NW 23:01:36 11° NW
CZ-2C R/B 4.4 23:02:17 10° NNE 23:05:53 31° E 23:06:56 27° SE
Cosmos 1125 Rocket 3.7 23:00:39 10° NNW 23:06:00 72° ENE 23:11:19 10° SSE
Cosmos 2142 Rocket 4.5 23:02:25 10° NNW 23:08:26 58° W 23:09:02 55° WSW
Cosmos 1814 Rocket 3.9 23:10:02 63° S 23:10:48 79° ESE 23:16:02 10° NNE
NOSS 3-2 (A) 3.9 23:09:56 38° S 23:11:47 51° SE 23:18:13 10° NE
deb Chang Zheng 4 3.5 23:08:07 10° NNE 23:12:32 89° ESE 23:12:36 87° S
NOSS 3-2 (C) 4.5 23:12:00 26° SSE 23:14:31 38° ESE 23:20:32 10° NE
IRS-P3 4.0 23:09:57 10° NNE 23:15:19 74° WNW 23:16:12 60° SW
Cosmos 1933 3.4 23:16:04 76° NNE 23:16:04 76° NNE 23:19:50 10° N
Cosmos 2369 Rocket 3.4 23:13:04 22° SSE 23:16:02 37° ESE 23:21:12 10° NE
CBERS-1 4.0 23:11:42 10° N 23:16:44 59° WNW 23:17:09 57° W
Cosmos 372 Rocket 3.9 23:11:44 10° NNW 23:16:56 63° WSW 23:16:56 63° WSW
Gbstr 26 Del rocket 4.4 23:14:16 36° W 23:18:05 84° S 23:26:05 10° E
ATLAS 3B R/B 3.8 23:15:40 19° SSE 23:19:27 33° ESE 23:25:14 10° ENE
Cosmos 192 4.2 23:19:34 69° SW 23:20:07 80° WNW 23:25:04 10° NNE
CZ-4B R/B 2.8 23:24:41 32° NNW 23:24:41 32° NNW 23:26:44 10° NNW
Meteor 1-20 Rocket 4.0 23:18:04 10° NNW 23:23:35 82° WSW 23:26:20 31° S
SME Rocket 4.1 23:16:48 10° NNE 23:24:48 65° WNW 23:26:30 45° WSW
Cosmos 1606 2.6 23:25:42 85° E 23:25:42 85° E 23:29:36 10° NNE
Cosmos 2228 Rocket 3.0 23:26:15 70° SW 23:26:42 78° WNW 23:31:13 10° N
ADEOS II 2.0 23:21:27 10° NNE 23:26:46 89° ESE 23:28:28 45° SSW
Cosmos 972 4.3 23:21:58 10° NNW 23:27:03 62° WSW 23:27:35 58° SW
Cosmos 2150 Rocket 4.3 23:22:10 10° NW 23:27:10 48° W 23:27:10 48° W
AQUA 4.4 23:22:58 10° N 23:27:26 41° WNW 23:27:32 41° WNW
ATLAS CENTAUR R/B 4.0 23:24:00 10° NW 23:27:35 20° N 23:31:01 10° NE
SL-08 R/B 4.4 23:31:28 29° WNW 23:31:28 29° WNW 23:34:31 10° NNW
Falcon 9 debris 3.9 23:31:18 46° ESE 23:31:18 46° ESE 23:34:06 10° E
COSMOS 2487 3.2 23:30:41 10° NNW 23:34:08 52° ENE 23:37:33 10° SE
Cosmos 841 Rocket 3.4 23:34:53 50° SW 23:36:07 70° WNW 23:41:22 10° NNE
Unknown 4.1 23:37:21 37° E 23:37:21 37° E 23:39:13 10° E
Resurs 1-4 Rocket 2.9 23:32:38 10° N 23:37:18 33° WNW 23:38:02 31° WNW
Cosmos 2208 Rocket 4.3 23:37:44 43° W 23:38:56 52° WNW 23:44:06 10° NNE
Cosmos 2278 Rocket 3.4 23:37:30 25° WNW 23:39:19 30° NW 23:44:17 10° NNE
SL-4 R/B 2.4 23:40:38 39° SE 23:40:38 39° SE 23:43:09 10° ESE
CRYOSAT 2 4.4 23:39:07 50° WSW 23:39:49 54° W 23:44:36 10° NNW
Cosmos 1151 Rocket 4.0 23:40:26 31° WNW 23:40:26 31° WNW 23:43:54 10° N
Spot 4 Rocket 3.9 23:35:50 10° NNE 23:41:01 83° WNW 23:43:06 37° SSW
PEGASUS R/B 3.8 23:37:54 10° NNE 23:41:15 70° ENE 23:41:15 70° ENE
USA 267 3.5 23:35:08 10° E 23:41:39 71° NNE 23:47:58 11° WNW
Cosmos 2279 Rocket 4.4 23:38:43 10° NNW 23:44:31 41° W 23:45:58 36° WSW
CZ-2D R/B 3.2 23:41:01 10° NNE 23:45:07 85° WNW 23:46:03 52° SSW
Cosmos 1689 Rocket 3.8 23:47:11 25° NNW 23:47:11 25° NNW 23:48:41 10° NNW
Unknown 3.2 23:49:05 62° S 23:49:13 62° SSE 23:52:44 10° E
SL-16 R/B 4.1 23:50:33 16° WNW 23:50:33 16° WNW 23:53:20 10° NW
IRS-1D 4.2 23:45:35 10° N 23:50:33 40° WNW 23:51:56 33° W
H-2A R/B 4.3 23:50:03 10° NE 23:53:21 26° E 23:56:37 10° SSE
IRIDIUM 104 4.4 23:52:04 35° SW 23:54:07 59° W 23:59:18 10° N
